Time,TemperatureF,DewpointF,PressureIn,WindDirection,WindDirectionDegrees,WindSpeedMPH,WindSpeedGustMPH,Humidity,HourlyPrecipIn,Conditions,Clouds,dailyrainin,SoftwareType,DateUTC
2013-05-18 00:02:00,64.0,62.0,29.97,SE,126,1.0,4.0,93,0.00,,,0.37,,2013-05-18 05:02:00,
2013-05-18 00:12:00,64.0,62.0,29.97,SE,126,1.0,4.0,93,0.00,,,0.37,,2013-05-18 05:12:00,
2013-05-18 00:22:00,64.0,62.0,29.96,SE,124,1.0,4.0,93,0.00,,,0.37,,2013-05-18 05:22:00,
2013-05-18 00:32:00,64.0,62.0,29.96,SE,134,1.0,5.0,94,0.00,,,0.37,,2013-05-18 05:32:00,
2013-05-18 00:42:00,64.0,62.0,29.96,SE,134,1.0,5.0,94,0.00,,,0.37,,2013-05-18 05:42:00,
2013-05-18 00:52:00,63.0,61.0,29.96,SE,132,1.0,4.0,94,0.00,,,0.37,,2013-05-18 05:52:00,
2013-05-18 01:02:00,63.0,61.0,29.96,ESE,122,1.0,4.0,94,0.00,,,0.37,,2013-05-18 06:02:00,
2013-05-18 01:11:00,63.0,61.0,29.96,ESE,122,1.0,4.0,94,0.00,,,0.37,,2013-05-18 06:11:00,
2013-05-18 01:22:00,63.0,61.0,29.96,ESE,123,1.0,3.0,94,0.00,,,0.37,,2013-05-18 06:22:00,
2013-05-18 01:32:00,63.0,62.0,29.96,SSE,156,1.0,4.0,95,0.00,,,0.37,,2013-05-18 06:32:00,
2013-05-18 01:42:00,63.0,62.0,29.96,SSE,156,1.0,4.0,95,0.00,,,0.37,,2013-05-18 06:42:00,
2013-05-18 01:52:00,63.0,62.0,29.96,SSE,152,1.0,4.0,95,0.00,,,0.37,,2013-05-18 06:52:00,
2013-05-18 02:01:00,63.0,62.0,29.96,SSE,155,0.0,3.0,95,0.00,,,0.37,,2013-05-18 07:01:00,
2013-05-18 02:11:00,63.0,62.0,29.96,SSE,155,0.0,3.0,95,0.00,,,0.37,,2013-05-18 07:11:00,
2013-05-18 02:21:00,62.0,61.0,29.96,SE,139,0.0,3.0,95,0.00,,,0.37,,2013-05-18 07:21:00,
2013-05-18 02:32:00,62.0,61.0,29.96,SE,128,1.0,4.0,95,0.00,,,0.37,,2013-05-18 07:32:00,
2013-05-18 02:42:00,62.0,61.0,29.96,SE,128,1.0,4.0,95,0.00,,,0.37,,2013-05-18 07:42:00,
2013-05-18 02:52:00,62.0,61.0,29.97,SE,135,1.0,4.0,96,0.00,,,0.37,,2013-05-18 07:52:00,
2013-05-18 03:01:00,62.0,61.0,29.97,SE,124,1.0,3.0,95,0.00,,,0.37,,2013-05-18 08:01:00,
2013-05-18 03:11:00,62.0,61.0,29.97,SE,124,1.0,3.0,95,0.00,,,0.37,,2013-05-18 08:11:00,
2013-05-18 03:21:00,62.0,61.0,29.97,SE,128,1.0,3.0,96,0.00,,,0.37,,2013-05-18 08:21:00,
2013-05-18 03:32:00,62.0,61.0,29.97,ESE,119,1.0,5.0,96,0.00,,,0.37,,2013-05-18 08:32:00,
2013-05-18 03:42:00,62.0,61.0,29.97,ESE,119,1.0,5.0,96,0.00,,,0.37,,2013-05-18 08:42:00,
2013-05-18 03:52:00,61.0,60.0,29.98,SE,128,1.0,5.0,96,0.00,,,0.37,,2013-05-18 08:52:00,
2013-05-18 04:02:00,61.0,60.0,29.98,ESE,113,1.0,3.0,96,0.00,,,0.37,,2013-05-18 09:02:00,
2013-05-18 04:11:00,61.0,60.0,29.98,ESE,113,1.0,3.0,96,0.00,,,0.37,,2013-05-18 09:11:00,
2013-05-18 04:22:00,62.0,61.0,29.98,SE,126,1.0,3.0,96,0.00,,,0.37,,2013-05-18 09:22:00,
2013-05-18 04:32:00,62.0,61.0,29.98,ESE,120,1.0,4.0,96,0.00,,,0.37,,2013-05-18 09:32:00,
2013-05-18 04:43:00,62.0,61.0,29.98,ESE,120,1.0,4.0,96,0.00,,,0.37,,2013-05-18 09:43:00,
2013-05-18 04:53:00,62.0,61.0,29.98,SE,135,0.0,2.0,96,0.00,,,0.37,,2013-05-18 09:53:00,
2013-05-18 05:03:00,62.0,61.0,29.98,SE,124,1.0,5.0,96,0.00,,,0.37,,2013-05-18 10:03:00,
2013-05-18 05:12:00,62.0,61.0,29.98,SE,124,1.0,5.0,96,0.00,,,0.37,,2013-05-18 10:12:00,
2013-05-18 05:23:00,62.0,61.0,29.98,SE,125,2.0,4.0,96,0.00,,,0.37,,2013-05-18 10:23:00,
2013-05-18 05:33:00,62.0,61.0,29.98,ESE,119,1.0,4.0,96,0.00,,,0.37,,2013-05-18 10:33:00,
2013-05-18 05:42:00,62.0,61.0,29.98,ESE,119,1.0,4.0,96,0.00,,,0.37,,2013-05-18 10:42:00,
2013-05-18 05:52:00,62.0,61.0,29.98,ESE,121,1.0,4.0,97,0.00,,,0.37,,2013-05-18 10:52:00,
2013-05-18 06:03:00,62.0,61.0,29.98,ESE,121,2.0,3.0,97,0.00,,,0.37,,2013-05-18 11:03:00,
2013-05-18 06:12:00,62.0,61.0,29.98,ESE,121,2.0,3.0,97,0.00,,,0.37,,2013-05-18 11:12:00,
2013-05-18 06:22:00,62.0,61.0,29.99,SE,129,1.0,4.0,97,0.00,,,0.37,,2013-05-18 11:22:00,
2013-05-18 06:33:00,62.0,61.0,29.99,SE,125,1.0,3.0,97,0.00,,,0.37,,2013-05-18 11:33:00,
2013-05-18 06:42:00,62.0,61.0,29.99,SE,125,1.0,3.0,97,0.00,,,0.37,,2013-05-18 11:42:00,
2013-05-18 06:52:00,62.0,61.0,29.99,ESE,122,1.0,4.0,97,0.00,,,0.37,,2013-05-18 11:52:00,
2013-05-18 07:02:00,62.0,61.0,29.99,ESE,111,1.0,3.0,97,0.00,,,0.37,,2013-05-18 12:02:00,
2013-05-18 07:12:00,62.0,61.0,29.99,ESE,111,1.0,3.0,97,0.00,,,0.37,,2013-05-18 12:12:00,
2013-05-18 07:23:00,63.0,62.0,29.99,SE,126,2.0,6.0,97,0.00,,,0.37,,2013-05-18 12:23:00,
2013-05-18 07:33:00,64.0,63.0,29.99,SE,144,2.0,5.0,97,0.00,,,0.37,,2013-05-18 12:33:00,
2013-05-18 07:42:00,64.0,63.0,29.99,SE,144,2.0,5.0,97,0.00,,,0.37,,2013-05-18 12:42:00,
2013-05-18 07:52:00,64.0,63.0,29.99,ESE,123,3.0,7.0,96,0.00,,,0.37,,2013-05-18 12:52:00,
2013-05-18 08:01:00,64.0,63.0,30.00,ESE,115,2.0,7.0,96,0.00,,,0.37,,2013-05-18 13:01:00,
2013-05-18 08:11:00,64.0,63.0,30.00,ESE,115,2.0,7.0,96,0.00,,,0.37,,2013-05-18 13:11:00,
2013-05-18 08:21:00,65.0,64.0,30.00,SSE,157,3.0,10.0,95,0.00,,,0.37,,2013-05-18 13:21:00,
2013-05-18 08:33:00,65.0,63.0,30.00,ESE,115,2.0,5.0,94,0.00,,,0.37,,2013-05-18 13:33:00,
2013-05-18 08:43:00,65.0,63.0,30.00,ESE,115,2.0,5.0,94,0.00,,,0.37,,2013-05-18 13:43:00,
2013-05-18 08:52:00,66.0,64.0,30.01,SE,143,1.0,7.0,94,0.00,,,0.37,,2013-05-18 13:52:00,
2013-05-18 09:03:00,67.0,65.0,30.01,SE,128,1.0,5.0,92,0.00,,,0.37,,2013-05-18 14:03:00,
2013-05-18 09:12:00,67.0,65.0,30.01,SE,128,1.0,5.0,92,0.00,,,0.37,,2013-05-18 14:12:00,
2013-05-18 09:22:00,67.0,64.0,30.01,East,82,4.0,10.0,91,0.00,,,0.37,,2013-05-18 14:22:00,
2013-05-18 09:33:00,67.0,64.0,30.01,East,101,2.0,8.0,91,0.00,,,0.37,,2013-05-18 14:33:00,
2013-05-18 09:42:00,67.0,64.0,30.01,East,101,2.0,8.0,91,0.00,,,0.37,,2013-05-18 14:42:00,
2013-05-18 09:54:00,68.0,64.0,30.01,SE,141,3.0,7.0,88,0.00,,,0.37,,2013-05-18 14:54:00,
2013-05-18 10:03:00,69.0,65.0,30.01,ESE,105,2.0,9.0,86,0.00,,,0.37,,2013-05-18 15:03:00,
2013-05-18 10:13:00,69.0,65.0,30.01,ESE,105,2.0,9.0,86,0.00,,,0.37,,2013-05-18 15:13:00,
2013-05-18 10:23:00,70.0,65.0,30.01,SE,140,3.0,8.0,83,0.00,,,0.37,,2013-05-18 15:23:00,
2013-05-18 10:33:00,70.0,64.0,30.01,South,169,1.0,4.0,82,0.00,,,0.37,,2013-05-18 15:33:00,
2013-05-18 10:43:00,70.0,64.0,30.01,South,169,1.0,4.0,82,0.00,,,0.37,,2013-05-18 15:43:00,
2013-05-18 10:53:00,71.0,65.0,30.00,SE,138,2.0,7.0,82,0.00,,,0.37,,2013-05-18 15:53:00,
2013-05-18 11:02:00,73.0,65.0,30.00,SE,126,3.0,7.0,76,0.00,,,0.37,,2013-05-18 16:02:00,
2013-05-18 11:13:00,73.0,65.0,30.00,SE,126,3.0,7.0,76,0.00,,,0.37,,2013-05-18 16:13:00,
2013-05-18 11:22:00,73.0,65.0,30.00,SSE,153,3.0,9.0,75,0.00,,,0.37,,2013-05-18 16:22:00,
2013-05-18 11:33:00,73.0,65.0,29.99,ESE,115,2.0,7.0,76,0.00,,,0.37,,2013-05-18 16:33:00,
2013-05-18 11:42:00,73.0,65.0,29.99,ESE,115,2.0,7.0,76,0.00,,,0.37,,2013-05-18 16:42:00,
2013-05-18 11:52:00,73.0,64.0,30.00,SE,140,3.0,7.0,74,0.00,,,0.37,,2013-05-18 16:52:00,
2013-05-18 12:02:00,73.0,65.0,29.99,SE,140,2.0,6.0,75,0.00,,,0.37,,2013-05-18 17:02:00,
2013-05-18 12:12:00,73.0,65.0,29.99,SE,140,2.0,6.0,75,0.00,,,0.37,,2013-05-18 17:12:00,
2013-05-18 12:22:00,73.0,64.0,29.98,ESE,122,1.0,5.0,74,0.00,,,0.37,,2013-05-18 17:22:00,
2013-05-18 12:32:00,74.0,64.0,29.98,South,184,4.0,9.0,72,0.00,,,0.37,,2013-05-18 17:32:00,
2013-05-18 12:42:00,74.0,64.0,29.98,South,184,4.0,9.0,72,0.00,,,0.37,,2013-05-18 17:42:00,
2013-05-18 12:52:00,74.0,64.0,29.98,SE,142,3.0,9.0,72,0.00,,,0.37,,2013-05-18 17:52:00,
2013-05-18 13:01:00,76.0,65.0,29.97,SSW,207,4.0,10.0,68,0.00,,,0.37,,2013-05-18 18:01:00,
2013-05-18 13:12:00,76.0,65.0,29.97,SSW,207,4.0,10.0,68,0.00,,,0.37,,2013-05-18 18:12:00,
2013-05-18 13:21:00,75.0,63.0,29.97,SSE,156,4.0,9.0,67,0.00,,,0.37,,2013-05-18 18:21:00,
2013-05-18 13:32:00,76.0,65.0,29.96,South,187,3.0,7.0,68,0.00,,,0.37,,2013-05-18 18:32:00,
2013-05-18 13:42:00,76.0,65.0,29.96,South,187,3.0,7.0,68,0.00,,,0.37,,2013-05-18 18:42:00,
2013-05-18 13:52:00,77.0,65.0,29.96,SE,136,3.0,9.0,67,0.00,,,0.37,,2013-05-18 18:52:00,
2013-05-18 14:02:00,77.0,65.0,29.95,ESE,109,3.0,10.0,67,0.00,,,0.37,,2013-05-18 19:02:00,
2013-05-18 14:12:00,77.0,65.0,29.95,ESE,109,3.0,10.0,67,0.00,,,0.37,,2013-05-18 19:12:00,
2013-05-18 14:22:00,77.0,63.0,29.95,SE,134,3.0,7.0,63,0.00,,,0.37,,2013-05-18 19:22:00,
2013-05-18 14:32:00,76.0,64.0,29.95,SE,144,2.0,8.0,67,0.00,,,0.37,,2013-05-18 19:32:00,
2013-05-18 14:42:00,76.0,64.0,29.95,SE,144,2.0,8.0,67,0.00,,,0.37,,2013-05-18 19:42:00,
2013-05-18 14:52:00,75.0,65.0,29.94,SE,141,1.0,6.0,70,0.00,,,0.37,,2013-05-18 19:52:00,
2013-05-18 15:02:00,75.0,64.0,29.94,ESE,120,2.0,7.0,68,0.00,,,0.37,,2013-05-18 20:02:00,
2013-05-18 15:11:00,75.0,64.0,29.94,ESE,120,2.0,7.0,68,0.00,,,0.37,,2013-05-18 20:11:00,
2013-05-18 15:22:00,76.0,63.0,29.94,South,186,2.0,6.0,65,0.00,,,0.37,,2013-05-18 20:22:00,
2013-05-18 15:32:00,77.0,64.0,29.93,SSE,167,3.0,8.0,64,0.00,,,0.37,,2013-05-18 20:32:00,
2013-05-18 15:42:00,77.0,64.0,29.93,SSE,167,3.0,8.0,64,0.00,,,0.37,,2013-05-18 20:42:00,
2013-05-18 15:52:00,78.0,63.0,29.92,South,175,4.0,8.0,61,0.00,,,0.37,,2013-05-18 20:52:00,
2013-05-18 16:01:00,79.0,64.0,29.92,SE,132,6.0,12.0,61,0.00,,,0.37,,2013-05-18 21:01:00,
2013-05-18 16:12:00,79.0,64.0,29.92,SE,132,6.0,12.0,61,0.00,,,0.37,,2013-05-18 21:12:00,
2013-05-18 16:21:00,79.0,65.0,29.92,SSE,148,5.0,11.0,63,0.00,,,0.37,,2013-05-18 21:21:00,
2013-05-18 16:32:00,78.0,64.0,29.92,South,173,4.0,10.0,62,0.00,,,0.37,,2013-05-18 21:32:00,
2013-05-18 16:43:00,78.0,64.0,29.92,South,173,4.0,10.0,62,0.00,,,0.37,,2013-05-18 21:43:00,
2013-05-18 16:53:00,78.0,63.0,29.91,SE,134,5.0,10.0,61,0.00,,,0.37,,2013-05-18 21:53:00,
2013-05-18 17:03:00,79.0,63.0,29.91,SSE,149,4.0,9.0,58,0.00,,,0.37,,2013-05-18 22:03:00,
2013-05-18 17:12:00,79.0,63.0,29.91,SSE,149,4.0,9.0,58,0.00,,,0.37,,2013-05-18 22:12:00,
2013-05-18 17:23:00,79.0,63.0,29.91,SE,143,4.0,10.0,58,0.00,,,0.37,,2013-05-18 22:23:00,
2013-05-18 17:33:00,79.0,64.0,29.91,SE,126,3.0,8.0,61,0.00,,,0.37,,2013-05-18 22:33:00,
2013-05-18 17:42:00,78.0,63.0,29.92,SSE,149,4.0,7.0,60,0.00,,,0.37,,2013-05-18 22:42:00,
2013-05-18 17:52:00,78.0,63.0,29.92,SSE,149,4.0,7.0,60,0.00,,,0.37,,2013-05-18 22:52:00,
2013-05-18 18:01:00,78.0,64.0,29.91,ESE,121,2.0,5.0,62,0.00,,,0.37,,2013-05-18 23:01:00,
2013-05-18 18:12:00,78.0,64.0,29.91,ESE,121,2.0,5.0,62,0.00,,,0.37,,2013-05-18 23:12:00,
2013-05-18 18:22:00,78.0,63.0,29.91,ESE,123,2.0,5.0,60,0.00,,,0.37,,2013-05-18 23:22:00,
2013-05-18 18:32:00,78.0,64.0,29.91,SE,140,1.0,6.0,62,0.00,,,0.37,,2013-05-18 23:32:00,
2013-05-18 18:41:00,78.0,64.0,29.91,SE,140,1.0,6.0,62,0.00,,,0.37,,2013-05-18 23:41:00,
2013-05-18 18:52:00,78.0,65.0,29.91,SSE,167,3.0,6.0,64,0.00,,,0.37,,2013-05-18 23:52:00,
2013-05-18 19:01:00,77.0,64.0,29.91,SE,136,2.0,7.0,65,0.00,,,0.37,,2013-05-19 00:01:00,
2013-05-18 19:11:00,77.0,64.0,29.91,SE,136,2.0,7.0,65,0.00,,,0.37,,2013-05-19 00:11:00,
2013-05-18 19:21:00,77.0,65.0,29.90,SE,137,1.0,4.0,66,0.00,,,0.37,,2013-05-19 00:21:00,
2013-05-18 19:32:00,76.0,65.0,29.90,SSE,157,1.0,5.0,68,0.00,,,0.37,,2013-05-19 00:32:00,
2013-05-18 19:41:00,76.0,65.0,29.90,SSE,157,1.0,5.0,68,0.00,,,0.37,,2013-05-19 00:41:00,
2013-05-18 19:51:00,76.0,65.0,29.90,SE,141,2.0,4.0,68,0.00,,,0.37,,2013-05-19 00:51:00,
2013-05-18 20:01:00,75.0,64.0,29.90,SE,133,2.0,5.0,69,0.00,,,0.37,,2013-05-19 01:01:00,
2013-05-18 20:11:00,75.0,64.0,29.90,SE,133,2.0,5.0,69,0.00,,,0.37,,2013-05-19 01:11:00,
2013-05-18 20:21:00,75.0,65.0,29.91,South,172,2.0,6.0,71,0.00,,,0.37,,2013-05-19 01:21:00,
2013-05-18 20:32:00,74.0,64.0,29.91,South,170,1.0,5.0,71,0.00,,,0.08,,2013-05-19 01:32:00,
2013-05-18 20:42:00,74.0,64.0,29.91,South,170,1.0,5.0,71,0.00,,,0.08,,2013-05-19 01:42:00,
2013-05-18 20:52:00,75.0,65.0,29.91,SSE,164,1.0,4.0,70,0.00,,,0.08,,2013-05-19 01:52:00,
2013-05-18 21:01:00,74.0,64.0,29.91,SSE,158,1.0,5.0,70,0.00,,,0.08,,2013-05-19 02:01:00,
2013-05-18 21:11:00,74.0,64.0,29.91,SSE,158,1.0,5.0,70,0.00,,,0.08,,2013-05-19 02:11:00,
2013-05-18 21:21:00,74.0,64.0,29.91,SE,143,0.0,4.0,71,0.00,,,0.08,,2013-05-19 02:21:00,
2013-05-18 21:32:00,72.0,64.0,29.91,SSE,147,0.0,3.0,76,0.00,,,0.00,,2013-05-19 02:32:00,
2013-05-18 21:42:00,72.0,64.0,29.91,SSE,147,0.0,3.0,76,0.00,,,0.00,,2013-05-19 02:42:00,
2013-05-18 21:52:00,71.0,63.0,29.91,SE,145,1.0,4.0,77,0.00,,,0.00,,2013-05-19 02:52:00,
2013-05-18 22:01:00,71.0,64.0,29.92,SE,138,1.0,4.0,79,0.00,,,0.00,,2013-05-19 03:01:00,
2013-05-18 22:11:00,71.0,64.0,29.92,SE,138,1.0,4.0,79,0.00,,,0.00,,2013-05-19 03:11:00,
2013-05-18 22:22:00,70.0,64.0,29.91,SSE,157,2.0,5.0,80,0.00,,,0.00,,2013-05-19 03:22:00,
2013-05-18 22:33:00,70.0,64.0,29.91,SE,134,3.0,7.0,80,0.00,,,0.00,,2013-05-19 03:33:00,
2013-05-18 22:42:00,70.0,64.0,29.91,SE,134,3.0,7.0,80,0.00,,,0.00,,2013-05-19 03:42:00,
2013-05-18 22:53:00,69.0,63.0,29.91,SE,134,2.0,5.0,81,0.00,,,0.00,,2013-05-19 03:53:00,
2013-05-18 23:02:00,68.0,63.0,29.90,SE,125,1.0,4.0,83,0.00,,,0.00,,2013-05-19 04:02:00,
2013-05-18 23:12:00,68.0,63.0,29.90,SE,125,1.0,4.0,83,0.00,,,0.00,,2013-05-19 04:12:00,
2013-05-18 23:23:00,68.0,63.0,29.89,SSE,156,3.0,5.0,84,0.00,,,0.00,,2013-05-19 04:23:00,
2013-05-18 23:33:00,68.0,63.0,29.89,SE,126,3.0,5.0,84,0.00,,,0.00,,2013-05-19 04:33:00,
2013-05-18 23:42:00,68.0,63.0,29.89,SE,126,3.0,5.0,84,0.00,,,0.00,,2013-05-19 04:42:00,
2013-05-18 23:52:00,67.0,62.0,29.89,SE,126,2.0,5.0,85,0.00,,,0.00,,2013-05-19 04:52:00,